This is the latest recevied weather packets stored in our database for station/object DB0RV-13. If no packets are shown the sender has not sent any weather packets the latest 1 day(s).
| Time | Temp. | Humidity | Pressure | Rain* | Wind** | Luminosity | Snow |
|---|---|---|---|---|---|---|---|
| 1777975502 | 13.89° C | 77% | 1008.1 hPa | - | 0.45 m/s, 162° | - | - |
| 1777975202 | 13.33° C | 76% | 1008.1 hPa | - | 0 m/s | - | - |
| 1777974901 | 12.78° C | 76% | 1008 hPa | - | 0.45 m/s, 246° | - | - |
| 1777974602 | 12.78° C | 76% | 1008.2 hPa | - | 0.89 m/s, 239° | - | - |
| 1777974301 | 12.78° C | 78% | 1008.1 hPa | - | 2.24 m/s, 241° | - | - |
| 1777974002 | 12.78° C | 78% | 1008.2 hPa | - | 0.45 m/s, 243° | - | - |
| 1777973701 | 12.78° C | 79% | 1008.3 hPa | - | 0.45 m/s, 238° | - | - |
| 1777973402 | 12.22° C | 77% | 1008.3 hPa | - | 2.24 m/s, 269° | - | - |
| 1777973102 | 12.78° C | 78% | 1008.4 hPa | - | 1.34 m/s, 239° | - | - |
| 1777972802 | 12.78° C | 78% | 1008.4 hPa | - | 1.79 m/s, 259° | - | - |
| 1777972502 | 12.78° C | 79% | 1008.3 hPa | - | 2.68 m/s, 262° | - | - |
| 1777972201 | 12.78° C | 79% | 1008.3 hPa | - | 1.34 m/s, 245° | - | - |
| 1777971902 | 12.78° C | 78% | 1008.3 hPa | - | 3.13 m/s, 248° | - | - |
| 1777971601 | 12.78° C | 79% | 1008.4 hPa | - | 2.24 m/s, 244° | - | - |
| 1777971302 | 12.78° C | 80% | 1008.3 hPa | - | 2.24 m/s, 239° | - | - |
| 1777971001 | 12.22° C | 79% | 1008.4 hPa | - | 1.79 m/s, 266° | - | - |
| 1777970702 | 12.78° C | 80% | 1008.4 hPa | - | 2.24 m/s, 244° | - | - |
| 1777970401 | 12.22° C | 79% | 1008.4 hPa | - | 2.24 m/s, 246° | - | - |
| 1777970102 | 12.78° C | 79% | 1008.5 hPa | - | 1.79 m/s, 253° | - | - |
| 1777969802 | 12.78° C | 80% | 1008.4 hPa | - | 1.34 m/s, 241° | - | - |
| 1777969501 | 12.78° C | 79% | 1008.4 hPa | - | 0.89 m/s, 239° | - | - |
| 1777969202 | 12.78° C | 81% | 1008.5 hPa | - | 1.34 m/s, 247° | - | - |
| 1777968901 | 12.22° C | 82% | 1008.4 hPa | - | 0.89 m/s, 239° | - | - |
| 1777968602 | 11.67° C | 82% | 1008.5 hPa | - | 2.24 m/s, 250° | - | - |
| 1777968301 | 11.67° C | 82% | 1008.6 hPa | - | 2.24 m/s, 230° | - | - |
* Rain since midnight (hover to see other rain measurements)
** Current wind speed in m/s (hover to see current wind gust speed)